Location: Bergfeld
(52.0500°N, 11.7833°E)
Time: 10:09:33
(UTC+00:00)

Cosmos 2123 Rocket - Pass Details

Date: 17 February 2020
Orbit: 960 x 993 km, 82.9° (Epoch: 29 March)

Event Time Altitude Azimuth Distance (km) Brightness Sun altitude
Rises 05:23:14 0° 187° (S) 3,696 7.0 -10.1°
Reaches altitude 10° 05:25:45 10° 188° (S) 2,749 6.4 -9.7°
Maximum altitude 05:32:05 90° 104° (ESE) 997 4.1 -8.8°
Drops below altitude 10° 05:38:26 10° 10° (N) 2,753 6.4 -7.8°
Sets 05:40:57 0° 11° (N) 3,701 7.1 -7.4°
